This is the latest recevied weather packets stored in our database for station/object K6TTR. If no packets are shown the sender has not sent any weather packets the latest 10 day(s).
| Time | Temp. | Humidity | Pressure | Rain* | Wind** | Luminosity | Snow |
|---|---|---|---|---|---|---|---|
| 1787791949 | 27.22° C | 19% | 1020.3 hPa | 0 mm | - | 33 W/m² | - |
| 1787791651 | 27.22° C | 19% | 1020.4 hPa | 0 mm | - | 35 W/m² | - |
| 1787791351 | 27.22° C | 19% | 1020.2 hPa | 0 mm | - | 33 W/m² | - |
| 1787791048 | 27.78° C | 19% | 1020.3 hPa | 0 mm | - | 151 W/m² | - |
| 1787790750 | 27.22° C | 20% | 1020.3 hPa | 0 mm | - | 130 W/m² | - |
| 1787790433 | 27.78° C | 19% | 1020.3 hPa | 0 mm | - | 380 W/m² | - |
| 1787790135 | 27.78° C | 19% | 1020.3 hPa | 0 mm | - | 62 W/m² | - |
| 1787789855 | 27.78° C | 19% | 1020.4 hPa | 0 mm | - | 40 W/m² | - |
| 1787789556 | 27.78° C | 19% | 1020.4 hPa | 0 mm | - | 44 W/m² | - |
| 1787789234 | 27.78° C | 18% | 1020.6 hPa | 0 mm | - | 44 W/m² | - |
| 1787788938 | 27.78° C | 19% | 1020.5 hPa | 0 mm | - | 121 W/m² | - |
| 1787788640 | 27.78° C | 19% | 1020.5 hPa | 0 mm | - | 93 W/m² | - |
| 1787788340 | 28.33° C | 19% | 1020.7 hPa | 0 mm | - | 95 W/m² | - |
| 1787788038 | 28.33° C | 18% | 1020.6 hPa | 0 mm | - | 49 W/m² | - |
| 1787787739 | 28.33° C | 19% | 1020.6 hPa | 0 mm | - | 86 W/m² | - |
| 1787787438 | 28.33° C | 18% | 1020.6 hPa | 0 mm | - | 102 W/m² | - |
| 1787787138 | 28.33° C | 19% | 1020.5 hPa | 0 mm | - | 638 W/m² | - |
| 1787786837 | 28.33° C | 18% | 1020.8 hPa | 0 mm | - | 610 W/m² | - |
| 1787786541 | 28.89° C | 19% | 1020.7 hPa | 0 mm | - | 663 W/m² | - |
| 1787786240 | 28.89° C | 19% | 1020.8 hPa | 0 mm | - | 682 W/m² | - |
| 1787785944 | 28.89° C | 18% | 1020.7 hPa | 0 mm | - | 703 W/m² | - |
| 1787785643 | 29.44° C | 18% | 1020.9 hPa | 0 mm | - | 679 W/m² | - |
| 1787785345 | 28.89° C | 18% | 1021 hPa | 0 mm | - | 717 W/m² | - |
| 1787785043 | 28.89° C | 19% | 1021 hPa | 0 mm | - | 731 W/m² | - |
| 1787784742 | 28.89° C | 19% | 1021.1 hPa | 0 mm | - | 745 W/m² | - |
* Rain latest hour (hover to see other rain measurements)
** Current wind speed in m/s (hover to see current wind gust speed)